THOR ABLESTAR DEB, 246

Orbit data source: Space-Track

THOR ABLESTAR DEB, 246 is space debris in LEO originally from a launch on Thu, 29 Jun 1961 UTC launched from the Air Force Eastern Test Range (AFETR). Debris objects in space refer to the collection of defunct objects orbiting the Earth. Examples of debris include non-operational satellites, rocket bodies, and fragments generated from explosions, collisions, or faulty payload assembly.

Loading next visibility...
Identifier
246, 1961-015CB
Orbit
LEO
Country
Flag of USUS
Related business
Manufacturer
Unknown
Mission
Spacecraft
Bus & Motor
Unknown
Mass
Unknown
Launch date (UTC)
1961-06-29 (64 years ago)
Launch vehicle
Unknown
Launch site
Air Force Eastern Test Range (AFETR)
Object type
Payload
Rocket body
Debris
Shape & HBR
Unknown shape, 0.2 m
Radar Cross Section
Medium (>0.1 m² and <1 m²)

Expand to show TLE details & history
Last TLE update: 9 hours ago

TLE from 9 hours ago
0 THOR ABLESTAR DEB
1 00246U 61015CB  25304.30329234  .00000016  00000-0  77422-4 0  9998
2 00246  66.8713  24.8450 0071567 292.3056  67.0444 13.86118634592148
Epoch: 2025-10-31T07:16Z
TLE epoch observation values (Epoch: 2025-10-31T07:16:44.458Z)
Latitude
-0.00003°
Longitude
-124.18992°
Altitude
924.225 km
Speed
7.4 km/s
True Right ascension
01h 39m 22s
True Declination
0° 00' 00"
Sunlit
Object was in full shadow at epoch
Visualization orbit readout
Latitude
Unknown
Longitude
Unknown
Altitude
Unknown
Speed
Unknown
Apparent Right ascension
Unknown
Apparent Declination
Unknown
Sunlit
N/A
Visualization observer readout
Local Sidereal Time
11:59:44
Azimuth
Unknown
Elevation
Unknown
Doppler factor
Unknown
Orbital elements
Apogee altitude
993.032 km
Perigee altitude
888.275 km
Semi-major axis
7,318.79 km
Eccentricity
0.00716
Inclination
66.8713°
RAAN
24.845°
Arg. of periapsis
292.3056°
True anomaly
67.80217°
Mean anomaly
67.0444°
Eccentric anomaly
67.42302°
Mean motion
3.46644 °/min
Orbital period
103.85 mins
BSTAR
0.000077422
Loading maneuver chart data...
Computing Atmospheric mass density...

Documentation

Showing up to 5 results
|